Torna al catalogo

ONEWEB-0022

AttivoComunicazioniPO
NORAD 45135·PAYLOAD·🇬🇧 United Kingdom

Lanciato Feb 6, 2020 da Baikonur Cosmodrome

Loading…

Prossimi Passaggi (prossime 24 ore)

TLE

AggiornatoSource: Space-Track

Epoca: Sep 14, 2026, 06:55 UTC

1 45135U 20008E   26257.28869624 -.00000602  00000-0 -17575-2 0  9992
2 45135  87.8909  18.5745 0001453  94.1881 265.9412 13.10493314320020

Traccia ONEWEB-0022 in tempo reale con AllMySat

Download on the App Store